Погода в Лобве

Россия / Свердловская область     59°10′44″N   60°29′32″E
темп.,
°C
ветер,
м/с
пор.,
м/с
влажн.,
%
обл.,
%
осадки,
мм/ч
давл.,
гПа
погр.,
м
16 июня, ср
ср1623:00+17з22745 0.0 101225
02:00+15з1184100 0.0 101311
05:00+16зюз118398 0.0 101311
08:00+19ююв13705 0.0 1013209
11:00+25ююз345029 0.0 1012938
14:00+25зюз235157 0.0 1010281
17:00+29зюз383451 0.0 10092239
20:00+26ююв37541 0.0 1007184
17 июня, чт
чт1723:00+23ю412565 0.0 1005386
02:00+17ююз312775 0.1 1004259
05:00+18юз4117943 0.1 1002426
08:00+20зсз257761 0.4 1003774
11:00+19ссз477673 1.6 1004960
14:00+16св1490100 0.6 1006252
17:00+18ссз387571 2.1 1006767
20:00+18с494298 0.1 1008875
18 июня, пт
пт1823:00+14с51243100 0.1 1011783
02:00+11с5114960 0.0 1013647
05:00+10с41054100 0.0 1016557
08:00+11с495287 0.0 1018703
11:00+16с47315 0.0 10182401
14:00+19с4723100 0.0 10173248
17:00+20ссз472387 0.0 10163035
20:00+17сз583562 0.0 10161590
19 июня, сб
сб1923:00+12зсз385429 0.0 1017248
02:00+12сз496498 0.0 1018665
05:00+12зсз3768100 0.0 1018471
08:00+14сз346198 0.0 10181067
11:00+18ссз244566 0.0 10171809
14:00+21ссз2534100 0.0 10152280
17:00+22сз3537100 0.0 10151973
20:00+17сз3962100 0.0 1015389
20 июня, вс
вс2023:00+15з2575100 0.0 1014130
02:00+15юз2684100 0.1 1013180
05:00+15зюз258833 0.1 1013150
08:00+21сз58685 0.0 1013696
11:00+25сз68405 0.0 10141972
14:00+26ссз582435 0.0 10142271
17:00+26с46235 0.0 10152271
20:00+22ссз23470 0.0 101760